[[{"header":{"parameterUnit":"m.s-1","parameterCategory":1,"la1":30.2991,"la2":30.254,"lo1":-89.0895,"lo2":-89.0444,"dy":0.0017,"dx":0.0017,"nx":28,"ny":28,"refTime":"2025-06-02T03:00:00:Z","depth":0,"parameterNumber":2,"parameterNumberName":"U-component_of_WINDS"},"data":[0,0,0,0,0,0,0,0,0,0,0,0,0,0,0,0,0,0,0,0,0,0,0,0,0,0,0,0,0,0,0,0,0,0,0,0,0,0,0,0,0,0,0,0,0,0,0,0,0,0,0,0,0,0,0,0,0,0,-4.3284,-4.3285,0,-4.3347,-4.3348,-4.3349,-4.3243,-4.324,-4.3236,-4.3233,-4.3297,-4.3302,-4.3307,0,0,0,0,0,0,0,0,0,0,0,0,0,-4.3072,-4.3076,-4.3284,-4.3285,-4.3286,-4.3347,-4.3348,-4.3349,-4.3244,-4.3239,-4.3235,-4.3231,-4.3296,-4.3302,-4.3308,0,0,0,0,0,0,0,0,0,0,0,0,0,-4.3153,-4.3078,-4.3284,-4.3241,-4.3237,-4.3347,-4.3348,-4.3349,-4.3245,-4.3239,-4.3234,-4.3229,-4.3294,-4.3301,-4.3309,-4.3463,0,0,-4.3332,-4.3335,0,0,0,0,0,0,0,0,-4.3148,-4.316,-4.3246,-4.3244,-4.324,-4.3282,-4.3297,-4.3387,-4.3246,-4.3242,-4.3233,-4.3226,-4.3297,-4.3304,-4.3327,-4.3466,-4.3469,-4.3333,-4.3337,-4.3341,-4.3343,0,0,0,0,0,0,0,-4.3143,-4.3157,-4.3309,-4.3247,-4.3244,-4.3218,-4.3223,-4.3314,-4.3299,-4.3242,-4.3234,-4.3243,-4.3294,-4.332,-4.3328,-4.347,-4.3332,-4.3339,-4.3344,-4.3347,-4.3738,-4.3744,0,0,0,0,0,0,-4.3142,-4.3153,-4.3307,-4.3311,-4.318,-4.3226,-4.3232,-4.3274,-4.3297,-4.3296,-4.3248,-4.3238,-4.331,-4.3319,-4.333,-4.3511,-4.334,-4.3348,-4.3352,-4.3732,-4.3739,-4.3746,0,0,0,0,0,0,-4.3138,-4.3157,-4.3304,-4.323,-4.3247,-4.3235,-4.3283,-4.3278,-4.3304,-4.3302,-4.3299,-4.3277,-4.3306,-4.3319,-4.3431,-4.3512,-4.3351,-4.3358,-4.3725,-4.3734,-4.3742,-4.3875,0,0,0,0,0,0,-4.3133,-4.3156,-4.3215,-4.3232,-4.3251,-4.3404,-4.3288,-4.3283,-4.3317,-4.3305,-4.3329,-4.3327,-4.3303,-4.342,-4.3438,-4.3519,-4.3364,-4.3718,-4.3729,-4.374,-4.3863,-4.3887,-4.3908,0,0,0,0,0,-4.3126,-4.325,-4.3218,-4.3238,-4.3324,-4.3409,-4.342,-4.3389,-4.3325,-4.3383,-4.3382,-4.3327,-4.3501,-4.3432,-4.3452,-4.3536,-4.3713,-4.3726,-4.3739,-4.3853,-4.3883,-4.3907,0,0,0,0,0,0,-4.3243,-4.3252,-4.3216,-4.335,-4.338,-4.3391,-4.3464,-4.3421,-4.3469,-4.3456,-4.3416,-4.3422,-4.3542,-4.355,-4.3474,-4.3687,-4.3596,-4.3613,-4.3676,-4.3704,-4.3725,-4.372,-4.337,0,0,0,0,0,-4.3284,-4.3353,-4.3357,-4.3475,-4.3491,-4.3476,-4.3511,-4.3485,-4.3514,-4.3526,-4.3532,-4.3563,-4.3623,-4.3665,-4.3721,-4.3865,-4.3868,-4.3933,-4.3955,-4.3974,-4.3988,-4.4064,-4.4092,-4.3789,-4.3789,-4.3788,0,0,-4.337,-4.3384,-4.3429,-4.3498,-4.3518,-4.3589,-4.3487,-4.3567,-4.3618,-4.3538,-4.3642,-4.3649,-4.368,-4.3808,-4.3865,-4.3819,-4.4073,-4.399,-4.4005,-4.401,-4.408,-4.4109,-4.4134,-4.3798,-4.3796,-4.3795,0,0,-4.3563,-4.3581,-4.368,-4.3702,-4.3733,-4.3722,-4.3746,-4.3764,-4.3765,-4.387,-4.3811,-4.3873,-4.3979,-4.4003,-4.4029,-4.4232,-4.4183,-4.4252,-4.4367,-4.4441,-4.4465,-4.4485,-4.4556,-4.4582,-4.4268,-4.4268,-4.4268,0,-4.3666,-4.3771,-4.3737,-4.382,-4.3852,-4.3783,-4.3882,-4.3905,-4.3954,-4.3977,-4.3925,-4.4057,-4.4073,-4.4205,-4.4255,-4.4279,-4.4304,-4.4248,-4.4464,-4.4485,-4.4504,-4.457,-4.4597,-4.4276,-4.4275,-4.4274,-4.4273,0,-4.3895,-4.3969,-4.4045,-4.4092,-4.4133,-4.4225,-4.4204,-4.4249,-4.422,-4.4215,-4.4322,-4.4339,-4.4397,-4.4427,-4.44,-4.4556,-4.4526,-4.4471,-4.4377,-4.4541,-4.4603,-4.4628,-4.4287,-4.4284,-4.4282,-4.428,0,0,-4.4161,-4.4189,-4.4217,-4.4237,-4.4267,-4.4323,-4.4412,-4.4468,-4.4507,-4.4544,-4.4615,-4.4708,-4.4656,-4.4686,-4.4661,-4.4727,-4.4884,-4.4662,-4.4662,-4.4701,-4.5054,-4.5094,-4.5124,-4.4853,-4.4857,-4.4861,-4.5051,0,-4.435,-4.4502,-4.4474,-4.4622,-4.4688,-4.4624,-4.4701,-4.4728,-4.4726,-4.4782,-4.4779,-4.4844,-4.4773,-4.479,-4.4852,-4.4851,-4.4954,-4.4838,-4.4918,-4.4921,-4.4909,-4.5156,-4.5198,-4.5376,-4.5075,-4.5079,-4.5082,0,-4.4591,-4.4635,-4.479,-4.4808,-4.4835,-4.4904,-4.4953,-4.5009,-4.5038,-4.5031,-4.5065,-4.5028,-4.5116,-4.5024,-4.5144,-4.5066,-4.5097,-4.5102,-4.5108,-4.5112,-4.5009,-4.5164,-4.5432,-4.5458,-4.512,-4.5117,-4.5114,0,-4.4766,-4.4865,-4.497,-4.4989,-4.5014,-4.5064,-4.5077,-4.51,-4.5136,-4.518,-4.5202,-4.5256,-4.5285,-4.5327,-4.5305,-4.5241,-4.5428,-4.5335,-4.5424,-4.5425,-4.5464,-4.5461,-4.5738,-4.549,-4.5489,-4.5489,-4.5488,0,-4.4979,-4.5075,-4.5048,-4.5112,-4.5218,-4.5186,-4.5292,-4.5297,-4.5319,-4.5382,-4.5331,-4.5392,-4.5361,-4.542,-4.5404,-4.5504,-4.5518,-4.5515,-4.5509,-4.5518,-4.5518,-4.5536,-4.5522,-4.5496,-4.5494,-4.5493,-4.5492,0,-4.5192,-4.5178,-4.5287,-4.5301,-4.5307,-4.5385,-4.5397,-4.5456,-4.5451,-4.5532,-4.5549,-4.5541,-4.5607,-4.559,-4.5663,-4.5652,-4.5778,-4.5758,-4.5768,-4.5762,-4.5851,-4.5842,-4.6147,-4.6184,-4.5914,-4.5917,-4.5919,0,-4.5327,-4.5399,-4.5421,-4.546,-4.5477,-4.554,-4.5576,-4.5548,-4.5587,-4.5626,-4.5681,-4.5743,-4.579,-4.5899,-4.5899,-4.5955,-4.5934,-4.6037,-4.5942,-4.5948,-4.5932,-4.5927,-4.5933,-4.6055,-4.6058,-4.6061,-4.6063,0,-4.5567,-4.5557,-4.561,-4.5662,-4.5706,-4.5746,-4.578,-4.5815,-4.5789,-4.5836,-4.5903,-4.5941,-4.6015,-4.6076,-4.6127,-4.614,-4.6097,-4.6093,-4.6116,-4.6124,-4.6126,-4.6124,-4.5817,-4.6086,-4.6083,-4.6082,-4.608,-4.6079,-4.5743,-4.5804,-4.5829,-4.589,-4.5913,-4.5947,-4.6003,-4.6005,-4.606,-4.6117,-4.6098,-4.6174,-4.6201,-4.6265,-4.6285,-4.6344,-4.6305,-4.6339,-4.6347,-4.6355,-4.6365,-4.612,-4.6353,-4.6353,-4.6352,-4.6352,-4.6351,0,-4.5979,-4.5992,-4.6049,-4.6098,-4.6147,-4.6103,-4.6139,-4.6182,-4.625,-4.6278,-4.6326,-4.6403,-4.6463,-4.6469,-4.6525,-4.6571,-4.6553,-4.6587,-4.6581,-4.6585,-4.6398,-4.6371,-4.66,-4.66,-4.66,-4.66,-4.66,-4.66,-4.6107,-4.6207,-4.6199,-4.631,-4.6322,-4.6396,-4.642,-4.6451,-4.6473,-4.6561,-4.661,-4.6614,-4.6633,-4.669,-4.6743,-4.6743,-4.6765,-4.6806,-4.6799,-4.6623,-4.6598,-4.6574,-4.6549,-4.6812,-4.6812,-4.698,-4.6982,-4.6983]},{"header":{"parameterUnit":"m.s-1","parameterCategory":1,"la1":30.2991,"la2":30.254,"lo1":-89.0895,"lo2":-89.0444,"dy":0.0017,"dx":0.0017,"nx":28,"ny":28,"refTime":"2025-06-02T03:00:00:Z","depth":0,"parameterNumber":3,"parameterNumberName":"V-component_of_WINDS"},"data":[0,0,0,0,0,0,0,0,0,0,0,0,0,0,0,0,0,0,0,0,0,0,0,0,0,0,0,0,0,0,0,0,0,0,0,0,0,0,0,0,0,0,0,0,0,0,0,0,0,0,0,0,0,0,0,0,0,0,0.9562,0.9561,0,0.9546,0.9546,0.9545,0.95,0.9499,0.9498,0.9497,0.9481,0.9481,0.9482,0,0,0,0,0,0,0,0,0,0,0,0,0,0.9554,0.9554,0.9562,0.9561,0.9561,0.9546,0.9546,0.9545,0.95,0.9499,0.9498,0.9497,0.948,0.9481,0.9482,0,0,0,0,0,0,0,0,0,0,0,0,0,0.9549,0.9554,0.9562,0.9537,0.9534,0.9546,0.9546,0.9545,0.95,0.9499,0.9497,0.9496,0.948,0.9481,0.9482,0.9516,0,0,0.9484,0.9484,0,0,0,0,0,0,0,0,0.955,0.955,0.9541,0.9539,0.9536,0.9523,0.9537,0.9535,0.9501,0.9513,0.9497,0.9495,0.9496,0.9495,0.9496,0.9515,0.9514,0.9484,0.9484,0.9485,0.9485,0,0,0,0,0,0,0,0.955,0.955,0.9555,0.9541,0.9538,0.9527,0.9525,0.9536,0.9513,0.9512,0.9509,0.9508,0.9494,0.9495,0.9495,0.9514,0.9484,0.9485,0.9485,0.9485,0.9561,0.9563,0,0,0,0,0,0,0.9554,0.9551,0.9556,0.9555,0.9539,0.9528,0.9526,0.9529,0.9513,0.9509,0.9509,0.9506,0.9495,0.9494,0.9494,0.9533,0.9485,0.9485,0.9486,0.956,0.9562,0.9563,0,0,0,0,0,0,0.9554,0.9555,0.9556,0.9552,0.9551,0.953,0.9534,0.9529,0.953,0.951,0.9506,0.9514,0.9493,0.9493,0.9511,0.9532,0.9486,0.9486,0.9558,0.956,0.9563,0.9611,0,0,0,0,0,0,0.9554,0.9555,0.9567,0.9553,0.9552,0.9573,0.9535,0.953,0.9531,0.9527,0.9514,0.951,0.9492,0.951,0.9512,0.9532,0.9487,0.9556,0.9559,0.9562,0.9607,0.9614,0.9621,0,0,0,0,0,0.9554,0.9581,0.9568,0.9569,0.9567,0.9575,0.9574,0.9553,0.9533,0.9545,0.9533,0.9511,0.953,0.9512,0.9514,0.9534,0.9554,0.9558,0.9562,0.9604,0.9613,0.9621,0,0,0,0,0,0,0.9599,0.9579,0.9564,0.9588,0.9583,0.9567,0.9582,0.9563,0.9564,0.9559,0.9533,0.9531,0.9552,0.9545,0.9526,0.9567,0.9538,0.9542,0.957,0.9579,0.9585,0.9586,0.9488,0,0,0,0,0,0.9612,0.9619,0.9602,0.9624,0.9623,0.9603,0.9606,0.959,0.9584,0.9582,0.9571,0.9566,0.9571,0.9575,0.9578,0.9607,0.9603,0.9622,0.9629,0.9634,0.9638,0.9652,0.966,0.9575,0.9575,0.9575,0,0,0.9638,0.9628,0.9634,0.9633,0.9628,0.9637,0.9602,0.9612,0.9619,0.9583,0.9599,0.9592,0.9585,0.9608,0.9618,0.9603,0.9661,0.9639,0.9644,0.9644,0.9657,0.9665,0.9672,0.9578,0.9577,0.9577,0,0,0.969,0.9683,0.9701,0.9697,0.969,0.9677,0.9681,0.9668,0.9662,0.9677,0.9651,0.9659,0.9668,0.9664,0.9663,0.9717,0.9696,0.9719,0.9753,0.9768,0.9775,0.9781,0.9799,0.9806,0.9722,0.9722,0.9722,0,0.9723,0.9735,0.9713,0.9726,0.9726,0.9696,0.9714,0.9711,0.9705,0.9706,0.969,0.9702,0.9695,0.9717,0.973,0.9731,0.9735,0.9719,0.9776,0.9781,0.9786,0.9803,0.9811,0.9725,0.9725,0.9725,0.9724,0,0.9776,0.9785,0.9801,0.9797,0.9799,0.9815,0.9795,0.9801,0.9786,0.9774,0.9791,0.9783,0.9784,0.9788,0.9773,0.9809,0.98,0.978,0.9751,0.9798,0.9813,0.982,0.9729,0.9728,0.9727,0.9727,0,0,0.9854,0.9838,0.9844,0.9842,0.9833,0.984,0.9855,0.9856,0.9861,0.9859,0.987,0.988,0.9862,0.9861,0.9846,0.9859,0.9901,0.9838,0.9837,0.9849,0.994,0.9954,0.9962,0.9888,0.989,0.9891,0.994,0,0.9902,0.9926,0.9908,0.9935,0.9943,0.9915,0.9928,0.9924,0.9915,0.9921,0.991,0.9917,0.9893,0.9893,0.9905,0.9894,0.9919,0.989,0.9898,0.9899,0.9899,0.997,0.9984,1.0031,0.9946,0.9947,0.9948,0,0.9961,0.9962,0.999,0.998,0.9983,0.9995,0.9995,1.0001,0.9997,0.9989,0.9989,0.9971,0.9985,0.9958,0.9977,0.9958,0.996,0.9956,0.9957,0.9956,0.9925,0.9969,1.0046,1.0052,0.9957,0.9957,0.9956,0,1.0014,1.0022,1.004,1.0039,1.0028,1.0037,1.0033,1.0027,1.0029,1.003,1.0032,1.0035,1.0036,1.0038,1.0021,1.0003,1.0043,1.0014,1.0036,1.0037,1.0044,1.0044,1.0121,1.0049,1.0049,1.0048,1.0048,0,1.0069,1.0087,1.0064,1.0075,1.0095,1.0074,1.0094,1.0087,1.0083,1.0092,1.0069,1.0078,1.0056,1.0063,1.005,1.0068,1.0069,1.0063,1.0059,1.0064,1.0065,1.0064,1.006,1.005,1.005,1.005,1.0049,0,1.013,1.0115,1.0133,1.0122,1.0119,1.0134,1.0125,1.0134,1.0124,1.0137,1.0138,1.0122,1.013,1.0114,1.0119,1.011,1.0135,1.0127,1.0137,1.0133,1.0156,1.0154,1.0235,1.0244,1.0167,1.0168,1.0169,0,1.0165,1.0179,1.0169,1.0174,1.0171,1.0179,1.0182,1.0163,1.0167,1.0163,1.0174,1.0179,1.0183,1.0196,1.0185,1.0189,1.0179,1.0208,1.018,1.0185,1.0179,1.0178,1.0179,1.0213,1.0214,1.0214,1.0215,0,1.0229,1.0222,1.0227,1.023,1.0234,1.0235,1.0235,1.024,1.022,1.0226,1.0233,1.0236,1.0242,1.0248,1.0249,1.0245,1.0227,1.0224,1.023,1.0234,1.0239,1.0236,1.0151,1.0222,1.0221,1.0221,1.022,1.022,1.0278,1.0289,1.0284,1.029,1.0289,1.0289,1.0298,1.029,1.0295,1.0299,1.0288,1.0298,1.0294,1.0294,1.0292,1.03,1.0287,1.0295,1.0297,1.0299,1.0302,1.0239,1.0301,1.03,1.03,1.03,1.03,0,1.034,1.0336,1.0342,1.0343,1.0348,1.0332,1.0331,1.0337,1.0346,1.0344,1.0348,1.0357,1.0363,1.0354,1.0358,1.0366,1.0358,1.0368,1.0366,1.0365,1.0314,1.0308,1.0374,1.0374,1.0374,1.0374,1.0374,1.0374,1.0373,1.039,1.0382,1.0399,1.0395,1.0405,1.0406,1.0406,1.0405,1.0416,1.0421,1.0415,1.041,1.0414,1.0419,1.0416,1.0418,1.0431,1.0425,1.0376,1.0369,1.0362,1.0357,1.0432,1.0432,1.0476,1.0476,1.0477]}]]